Погода в Ульянове

Россия / Калининградская область     54°49′37″N   22°05′22″E
темп.,
°C
ветер,
м/с
пор.,
м/с
влажн.,
%
обл.,
%
осадки,
мм/ч
давл.,
гПа
погр.,
м
25 февраля, чт
чт2523:00+4юз599997 0.0 1027208
02:00+4зюз5109692 0.0 1027201
05:00+4зюз51098100 0.0 1026196
08:00+5зюз51199100 0.0 1027226
11:00+8юз5109292 0.0 1026246
14:00+12юз5118076 0.0 1025392
17:00+10юз410870 0.0 1023259
20:00+8юз511930 0.0 1022255
26 февраля, пт
пт2623:00+7зюз511951 0.0 1021256
02:00+7зюз6159322 0.0 1021496
05:00+6з7149061 0.0 1020641
08:00+4з6148676 0.0 1020586
11:00+6з8147876 0.0 1020982
14:00+7з9157683 0.0 10191194
17:00+5з8148199 0.0 10181068
20:00+5з8158599 0.0 1018804
27 февраля, сб
сб2723:00+4з7159075 0.0 1017532
02:00+3зсз6129142 0.0 1018421
05:00+2сз6148844 0.0 1019492
08:00+2сз7148822 0.0 1021554
11:00+5сз812730 0.0 1023808
14:00+6сз812650 0.0 1024941
17:00+5ссз711640 0.0 1026907
20:00+1сз511800 0.0 1028371
28 февраля, вс
вс2823:000сз49870 0.0 1029276
02:00−1сз37930 0.0 1030197
05:000сз389355 0.0 1030248
08:00+1зсз379077 0.0 1030275
11:00+4сз4674100 0.0 1031566
14:00+6сз577495 0.0 1031814
17:00+4сз3683100 0.0 1031350
20:00+1зсз359186 0.0 103299
1 марта, пн
пн123:000сз239226 0.0 103361
02:00+2з348861 0.0 1034107
05:00+1зсз239391 0.0 103466
08:00+1з339348 0.0 103572
11:00+5з35770 0.0 1035292
14:00+8з47670 0.0 1035626
17:00+7зсз477433 0.0 1034380
20:00+3зюз488860 0.0 1034180